FENGYUN 1C DEB

Satellite information

Favourite Embed

Satellite Type and Status

DEBRISIN ORBIT

Key statistics

Satellite FENGYUN 1C DEB at a glance.

Uptime

9715

Days in orbit

Revolutions

≈ 14.0

Per day

Orbit

SSO

Sun Synchronous Orbit

Inclination

98.2

Latest

Satellite identification and parameters

Extended collection of information and parameters for FENGYUN 1C DEB.

Object identification

Identified? True

Debris? True

Object name: FENGYUN 1C DEB

International designator: 1999-025BH

Object number (NORAD): 29767

Object ID (CCSDS): 29767

Country: PEOPLES REPUBLIC OF CHINA (PRC)

Current information (Y/N): Y

RCS size: SMALL

Orbital parameters

Period: 102.611 minutes

Inclination: 98.1984 deg

SMA: 7260.349 km

Apoapsis: 1124.155 km

Periapsis: 640.273 km

RAAN: 315.8489 deg

Eccentricy: 0.03332356

Argument of periapsis: 59.9578 deg

Mean anomaly: 63.5489 deg

Mean motion: 14.03351628 rev/day

Mean motion (dot): 0.00008701 rev/day2

B* drag term: 0.0034121765 1/REarth

Two-line elements (TLE)

Creation date: Dec. 13, 2025, 5:47 p.m.

Reference frame: TEME

Reference center: EARTH

Epoch: Dec. 13, 2025, 4:43 a.m. UTC

TLE line 0: 0 FENGYUN 1C DEB

TLE line 1: 1 29767U 99025BH 25347.19717406 .00008701 00000-0 34122-2 0 9992

TLE line 2: 2 29767 98.1984 315.8489 0333236 59.9578 63.5489 14.03351628956067

Live tracking on map

Real-time ground track for satellite FENGYUN 1C DEB.

In-orbit conjunctions

A list of the most updated potential collisions computed for object FENGYUN 1C DEB.

Target Orbit TCA Probability of collision Miss distance Type
NIMBUS 2 SSO 2024-07-31 03:09:42 0.0007665155 141.0 (m) PAYLOAD

Associated space launch

Chinese polar orbiting meteorological satellite

FENGYUN 1C DEB was lifted into orbit during the mission ‘Long March 4B | Feng Yun 1C’, on board a Long March 4B space rocket.

The launch took place on May 10, 1999, 1:33 a.m. from Launch Complex 7.

For more information about the launch, click the button.

Launch to space Long March 4B | Feng Yun 1C
Long March 4B | Feng Yun 1C

Agency: N/A

Status: Launch Successful

Launch date: May 10, 1999, 1:33 a.m. UTC

Rocket: Long March 4B

Launch pad: Launch Complex 7

Location: Taiyuan Satellite Launch Center, People's Republic of China

...

Latest news about this satellite

There are no fresh news available about this satellite. Check back as we update our databases every day.


Newsletter sign-up

Weekly statistics, charts and insights to help you stay on top of the space industry.